Temp
49 46 44 47 50 49 48 48 45 47 49 48 48 49 47 50 46 45 45 50 50 51 53 54 58 63 62 62 61 61 60 61 59 57 56 56 55 56 56 57 57 56 56 53
45 44 45 50 49 50 49 45 43 45 48 48 46 46 50 50 48 45 46 47 49 50 50 52 52 52 53 56 58 59 59 57 57 59 58 58 57 55 55 55 56 56 56 55
43 42 46 49 47 46 45 45 41 43 44 46 45 42 45 49 49 47 46 47 49 49 50 49 49 49 49 49 51 53 53 55 56 56 56 55 53 52 51 52 55 56 56 55
40 45 46 46 43 47 41 46 47 43 42 36 43 35 40 44 44 45 48 45 47 48 49 48 48 47 47 47 48 50 51 52 52 53 53 53 51 51 52 50 51 51 52 51
37 40 42 41 42 47 43 47 46 45 42 39 37 34 40 44 39 43 46 45 46 47 47 46 47 47 47 46 46 47 48 49 49 50 50 49 48 49 48 48 47 47 48 49
40 45 43 43 45 47 49 43 41 40 39 33 37 37 37 36 44 42 45 44 46 45 45 46 46 46 45 45 45 45 47 46 47 47 47 46 45 45 44 44 44 44 45 46
37 38 43 45 41 45 45 41 31 30 30 30 35 34 41 42 44 46 45 45 45 45 44 44 44 44 45 45 45 45 45 44 44 44 44 44 44 43 42 42 41 41 41 41
33 31 38 41 40 40 39 39 33 28 27 29 34 31 39 43 47 47 49 47 44 43 44 44 44 44 44 44 44 44 44 43 43 43 43 43 43 42 41 40 40 40 40 40
32 31 40 42 43 42 36 34 38 33 30 29 30 34 41 39 40 44 45 45 45 44 44 44 43 43 43 44 45 45 44 43 43 43 42 41 40 40 39 39 39 39 40 42
38 31 37 40 43 42 39 41 31 31 25 24 29 29 34 35 39 42 44 45 44 44 45 45 45 45 45 45 44 44 44 44 43 42 41 41 40 40 40 39 39 38 38 39
41 37 33 38 36 34 35 33 34 35 31 28 27 31 40 43 43 43 47 47 46 45 47 46 46 45 45 44 44 44 44 44 43 42 41 40 40 40 39 38 38 38 38 38
41 36 31 33 40 43 40 35 35 30 28 30 31 32 42 44 47 48 48 47 47 47 46 45 44 43 42 42 42 43 43 42 42 41 40 40 39 39 37 37 37 37 37 38
40 30 27 30 35 37 34 38 39 38 36 31 28 35 42 42 44 45 47 45 47 45 43 43 42 42 42 42 42 42 42 42 41 40 39 39 38 38 37 36 37 37 36 36
43 33 32 29 33 35 32 35 38 37 29 33 32 37 41 41 41 43 44 45 47 45 45 43 42 42 41 41 42 41 41 41 40 40 38 37 37 37 36 36 36 35 36 35
38 26 29 31 32 33 33 34 34 34 38 32 36 37 42 44 42 44 47 46 45 44 43 44 42 42 41 41 41 41 41 40 39 38 37 37 37 36 35 34 34 34 33 35
35 23 28 23 30 31 27 32 33 34 37 36 38 38 45 46 42 41 43 44 45 46 46 45 43 42 41 41 40 40 40 39 38 37 36 35 35 34 33 33 33 33 34 34
27 24 17 16 24 23 22 28 34 33 35 39 34 43 44 42 41 43 43 44 46 47 46 45 43 44 41 40 41 40 39 38 36 35 34 34 33 33 33 32 32 32 33 34
19 15 9 11 11 11 31 33 33 36 39 40 41 41 43 45 45 44 43 45 46 47 46 45 43 42 41 40 39 39 38 36 34 34 33 33 32 32 31 31 31 32 33 32
29 25 11 14 1 23 33 32 31 31 34 39 40 43 43 39 39 41 42 45 48 48 48 45 42 41 39 39 39 38 36 34 33 33 33 32 31 30 30 31 31 31 31 31
29 27 19 5 7 7 29 30 32 34 25 36 38 40 38 39 36 42 42 43 43 43 41 41 41 39 38 37 36 36 34 32 32 32 32 31 31 30 29 29 30 31 30 31
19 19 11 7 4 17 31 32 33 22 31 34 35 36 36 40 43 43 40 38 41 40 40 40 38 38 37 35 34 34 32 32 33 32 31 31 30 29 28 28 30 29 29 29
21 21 11 3 6 17 31 32 29 34 33 34 35 35 36 37 36 38 38 38 39 39 37 36 36 36 34 33 34 33 32 32 31 30 29 28 27 29 30 27 27 27 27 26
21 23 21 22 25 28 32 35 35 34 34 34 34 35 34 36 36 37 39 38 37 36 35 34 35 34 32 32 33 33 31 30 28 24 22 22 23 26 26 26 25 25 25 24
23 18 21 24 29 30 31 35 33 34 35 36 37 35 34 35 37 37 37 35 34 33 33 34 34 34 33 31 31 30 29 27 19 20 21 22 22 23 23 25 25 24 23 23
25 27 21 22 31 32 34 33 38 38 36 35 35 36 35 34 35 36 35 34 34 34 33 33 33 33 32 29 28 25 24 19 20 19 21 21 22 20 21 23 23 23 25 26
24 27 29 27 36 38 44 40 35 34 36 36 32 30 30 35 35 34 34 34 32 32 31 31 30 28 29 27 23 17 13 15 15 18 19 19 19 19 20 20 20 26 28 29
MSLP
1012.96 1013.46 1012.61 1013.68 1013.59 1013.76 1014.79 1015.57 1016.51 1017.15 1017.55 1017.94 1017.89 1017.91 1018.00 1018.23 1018.50 1018.66 1018.96 1019.15 1019.32 1019.25 1018.98 1018.73 1018.47 1018.45 1018.61 1018.81 1019.17 1019.63 1019.88 1020.12 1020.44 1020.88 1021.13 1021.27 1021.24 1021.08 1021.14 1021.12 1021.14 1021.22 1021.33 1021.43
1013.42 1013.03 1013.79 1013.96 1014.19 1014.18 1014.48 1015.55 1016.60 1017.53 1017.85 1018.02 1018.37 1018.40 1018.12 1018.36 1018.73 1018.99 1019.14 1019.34 1019.42 1019.44 1019.35 1019.35 1019.40 1019.28 1019.44 1019.64 1019.69 1019.82 1020.14 1020.44 1020.61 1020.79 1020.82 1020.90 1021.14 1021.36 1021.42 1021.34 1021.26 1021.15 1021.12 1021.13
1012.66 1014.04 1013.96 1013.89 1014.39 1014.40 1014.88 1015.07 1016.33 1017.27 1018.40 1018.83 1018.84 1018.75 1018.42 1018.58 1018.79 1019.20 1019.46 1019.40 1019.50 1019.59 1019.76 1019.98 1020.13 1020.22 1020.30 1020.48 1020.53 1020.61 1020.74 1020.70 1020.80 1020.87 1020.92 1021.16 1021.48 1021.64 1021.83 1021.74 1021.43 1021.26 1021.22 1021.15
1014.84 1014.67 1014.44 1014.72 1014.97 1014.62 1015.28 1015.58 1016.27 1016.87 1018.08 1018.93 1019.00 1018.84 1018.17 1018.43 1018.78 1019.11 1019.43 1019.40 1019.69 1019.82 1020.10 1020.47 1020.62 1020.84 1020.99 1021.13 1021.08 1021.08 1021.04 1021.11 1021.16 1021.12 1021.28 1021.53 1021.88 1022.07 1022.12 1022.16 1021.97 1021.68 1021.50 1021.33
1016.20 1015.43 1015.20 1015.26 1015.29 1015.19 1015.75 1015.96 1016.59 1017.09 1017.84 1018.77 1019.33 1019.56 1017.64 1017.82 1018.53 1018.47 1018.97 1019.24 1019.78 1020.12 1020.35 1020.76 1021.00 1021.08 1021.21 1021.28 1021.49 1021.53 1021.57 1021.70 1021.80 1021.84 1021.99 1022.21 1022.43 1022.58 1022.51 1022.45 1022.34 1022.07 1021.79 1021.58
1016.42 1016.50 1016.75 1016.50 1016.08 1015.55 1016.04 1016.82 1017.72 1018.29 1018.57 1018.93 1018.46 1018.84 1017.40 1017.49 1017.08 1017.75 1018.39 1019.15 1019.64 1020.27 1020.71 1021.14 1021.42 1021.62 1021.76 1021.75 1021.81 1021.92 1022.04 1022.37 1022.35 1022.36 1022.50 1022.71 1022.83 1022.90 1022.99 1022.96 1022.79 1022.56 1022.26 1021.95
1016.76 1017.29 1017.29 1017.12 1017.00 1017.01 1016.72 1017.16 1018.59 1019.26 1019.23 1019.04 1018.93 1018.86 1016.49 1016.36 1016.28 1016.54 1017.49 1018.46 1019.38 1020.07 1020.77 1021.30 1021.62 1021.79 1021.88 1021.97 1022.09 1022.26 1022.45 1022.78 1022.74 1022.73 1022.85 1023.06 1023.23 1023.21 1023.34 1023.34 1023.23 1023.01 1022.59 1022.05
1017.62 1018.67 1018.16 1018.15 1017.93 1017.63 1017.89 1017.60 1017.97 1018.61 1019.09 1019.33 1019.32 1017.76 1015.84 1015.49 1015.73 1016.25 1017.18 1018.07 1019.15 1019.98 1020.57 1021.04 1021.49 1021.84 1022.12 1022.16 1022.33 1022.59 1022.93 1023.09 1022.99 1023.07 1023.24 1023.23 1023.37 1023.36 1023.46 1023.42 1023.24 1022.98 1022.74 1022.35
1017.70 1018.64 1018.55 1018.59 1018.41 1018.50 1018.72 1018.41 1018.93 1018.94 1019.23 1019.12 1018.10 1016.93 1015.54 1015.70 1016.02 1016.41 1017.19 1018.14 1018.94 1019.88 1020.38 1020.91 1021.44 1021.81 1022.17 1022.41 1022.47 1022.67 1022.85 1022.98 1023.12 1023.35 1023.39 1023.44 1023.45 1023.37 1023.36 1023.28 1023.00 1022.78 1022.48 1022.07
1017.35 1018.39 1018.95 1018.99 1018.83 1019.13 1018.84 1018.97 1019.48 1019.38 1019.45 1018.94 1017.54 1016.72 1015.26 1015.63 1015.67 1016.24 1017.00 1017.60 1018.55 1019.40 1020.04 1020.65 1021.11 1021.56 1022.01 1022.18 1022.38 1022.78 1022.84 1023.02 1023.20 1023.21 1023.25 1023.39 1023.29 1023.29 1023.20 1023.03 1022.86 1022.68 1022.36 1021.91
1017.48 1018.11 1019.59 1019.51 1018.79 1018.95 1019.48 1019.26 1019.30 1019.25 1019.05 1018.56 1017.69 1015.35 1014.14 1014.01 1014.53 1015.12 1016.06 1016.99 1018.01 1018.84 1019.51 1020.25 1020.86 1021.45 1021.85 1022.07 1022.25 1022.54 1022.72 1022.88 1023.03 1023.11 1023.18 1023.17 1023.05 1022.93 1022.86 1022.79 1022.58 1022.30 1021.86 1021.53
1017.48 1018.28 1019.12 1019.28 1018.66 1018.76 1019.10 1019.15 1019.15 1019.01 1019.16 1018.35 1017.43 1015.05 1014.00 1013.76 1014.12 1014.91 1015.81 1016.81 1017.72 1018.43 1019.20 1020.00 1020.73 1021.36 1021.79 1021.98 1022.09 1022.20 1022.46 1022.67 1022.71 1022.84 1022.89 1022.80 1022.75 1022.74 1022.65 1022.34 1021.99 1021.79 1021.54 1021.03
1017.24 1018.27 1019.09 1019.40 1019.63 1019.37 1019.36 1018.97 1018.86 1018.70 1018.44 1017.61 1016.76 1014.67 1013.78 1013.78 1014.31 1015.05 1015.84 1016.63 1017.45 1018.20 1018.96 1019.91 1020.70 1021.17 1021.49 1021.66 1021.75 1021.84 1022.26 1022.49 1022.54 1022.65 1022.78 1022.75 1022.61 1022.53 1022.38 1022.21 1021.81 1021.47 1021.14 1020.68
1017.42 1018.06 1018.55 1018.79 1018.51 1018.21 1018.77 1018.32 1018.26 1018.17 1017.99 1017.04 1015.81 1014.42 1013.89 1014.30 1014.84 1015.33 1015.75 1016.32 1017.04 1017.92 1018.67 1019.41 1020.27 1020.67 1021.03 1021.27 1021.53 1021.84 1022.18 1022.31 1022.42 1022.52 1022.65 1022.56 1022.34 1022.19 1022.08 1021.80 1021.51 1021.14 1020.77 1020.37
1018.00 1019.02 1019.35 1019.45 1019.27 1018.93 1018.51 1018.11 1017.86 1017.73 1017.08 1016.53 1015.17 1014.53 1013.84 1014.02 1014.42 1014.71 1015.15 1016.06 1016.78 1017.47 1018.30 1018.85 1019.50 1020.08 1020.54 1021.02 1021.35 1021.59 1021.86 1022.11 1022.34 1022.44 1022.43 1022.34 1022.33 1022.18 1022.12 1021.85 1021.37 1020.97 1020.69 1020.25
1018.90 1020.02 1020.65 1021.06 1020.56 1019.99 1019.17 1018.33 1017.83 1017.38 1016.51 1015.96 1014.94 1013.87 1013.53 1013.77 1014.28 1014.89 1015.18 1015.74 1016.25 1016.75 1017.27 1018.07 1018.85 1019.53 1019.92 1020.39 1020.89 1021.21 1021.48 1021.85 1022.05 1022.24 1022.31 1022.41 1022.43 1022.27 1022.03 1021.61 1021.05 1020.69 1020.32 1019.70
1020.53 1021.47 1022.71 1023.16 1022.09 1020.93 1019.46 1016.97 1016.34 1016.00 1015.33 1014.67 1014.15 1012.13 1012.60 1013.09 1013.59 1013.74 1014.32 1014.88 1015.24 1015.78 1016.45 1017.21 1017.91 1018.42 1019.03 1019.76 1020.12 1020.74 1021.01 1021.62 1022.05 1022.38 1022.47 1022.39 1022.34 1022.07 1021.64 1021.26 1020.79 1020.29 1019.77 1019.27
1021.56 1022.99 1023.92 1024.92 1024.13 1021.68 1017.20 1015.76 1015.37 1015.22 1014.33 1013.91 1013.16 1012.39 1012.20 1012.05 1012.24 1012.82 1013.27 1013.80 1014.46 1014.96 1015.59 1016.40 1017.10 1017.85 1018.48 1019.19 1019.95 1020.46 1020.90 1021.58 1022.00 1022.14 1022.20 1022.04 1021.98 1021.82 1021.41 1021.18 1020.67 1019.97 1019.38 1019.02
1022.07 1023.07 1025.42 1026.29 1025.41 1021.13 1016.99 1015.68 1015.65 1015.30 1013.35 1012.82 1012.96 1012.20 1011.99 1012.24 1012.54 1012.54 1012.56 1012.98 1013.36 1013.83 1014.53 1015.51 1016.39 1017.23 1018.11 1018.84 1019.46 1020.17 1021.02 1021.62 1021.85 1022.00 1022.03 1022.01 1021.89 1021.69 1021.21 1021.00 1020.31 1019.71 1019.13 1018.55
1022.84 1023.42 1025.06 1027.21 1025.67 1022.10 1017.58 1015.85 1015.33 1015.11 1014.07 1012.41 1012.47 1011.95 1012.10 1012.47 1012.58 1011.86 1012.15 1012.68 1013.37 1013.95 1014.53 1015.30 1016.17 1017.02 1018.01 1018.97 1019.66 1020.47 1021.14 1021.48 1021.85 1022.01 1022.03 1021.91 1021.69 1021.55 1021.19 1020.77 1020.22 1019.55 1018.92 1018.09
1023.87 1024.65 1025.67 1026.54 1025.05 1020.98 1016.78 1015.85 1015.59 1015.50 1014.04 1012.63 1012.36 1011.86 1011.85 1012.08 1011.78 1011.78 1011.78 1012.40 1012.79 1013.49 1014.42 1015.39 1016.48 1017.27 1018.36 1019.27 1019.98 1020.72 1021.19 1021.46 1021.58 1021.72 1021.69 1021.67 1021.47 1021.13 1020.65 1020.36 1019.92 1019.48 1018.83 1018.03
1022.36 1023.90 1025.16 1025.18 1024.14 1020.54 1016.26 1016.41 1015.68 1013.98 1013.34 1013.10 1012.60 1012.32 1012.44 1012.20 1012.15 1012.17 1012.55 1013.12 1013.70 1014.15 1015.04 1015.87 1016.84 1018.07 1018.84 1019.48 1020.15 1020.83 1021.28 1021.40 1021.59 1021.77 1021.75 1021.56 1021.47 1021.28 1020.84 1020.40 1019.95 1019.28 1018.57 1017.93
1021.35 1020.21 1020.78 1020.58 1018.54 1016.39 1015.35 1014.50 1013.80 1013.86 1013.88 1013.22 1012.91 1012.80 1012.78 1012.78 1012.80 1012.89 1013.20 1013.69 1014.26 1014.94 1015.71 1016.46 1017.14 1018.36 1019.16 1019.90 1020.26 1020.75 1021.10 1021.34 1021.63 1021.89 1021.94 1021.91 1021.65 1021.47 1021.12 1020.57 1020.01 1019.48 1018.72 1018.16
1019.65 1019.11 1019.02 1018.53 1016.05 1015.25 1015.02 1013.75 1013.64 1013.45 1013.35 1013.24 1013.10 1012.97 1013.19 1013.39 1013.33 1013.45 1013.75 1014.23 1014.92 1015.49 1016.23 1016.92 1017.79 1018.72 1019.46 1019.88 1020.21 1020.71 1021.15 1021.54 1022.01 1022.14 1022.17 1021.99 1021.78 1021.42 1021.19 1020.81 1020.48 1019.76 1019.02 1018.26
1017.96 1017.99 1017.76 1016.67 1015.13 1014.04 1013.12 1012.74 1012.77 1012.74 1012.71 1012.88 1013.06 1013.15 1013.20 1013.41 1013.67 1013.91 1014.30 1014.87 1015.36 1015.93 1016.53 1017.20 1017.89 1018.59 1019.39 1019.93 1020.56 1021.12 1021.59 1021.94 1022.26 1022.33 1022.30 1021.98 1021.96 1021.89 1021.57 1021.21 1020.59 1019.98 1019.48 1018.82
1016.06 1015.14 1015.12 1014.17 1012.83 1012.49 1011.98 1011.39 1011.84 1012.51 1012.39 1012.36 1012.98 1013.16 1013.46 1013.45 1013.79 1014.34 1014.66 1014.83 1015.48 1016.23 1016.75 1017.29 1017.94 1018.67 1019.35 1020.18 1021.24 1021.84 1022.01 1022.18 1022.38 1022.20 1022.23 1022.33 1022.32 1022.07 1021.73 1021.51 1020.95 1020.16 1019.59 1018.72
Wind_Speed
7 8 20 16 13 7 11 9 9 4 6 4 5 3 2 1 2 3 3 6 6 6 4 1 2 5 5 5 6 6 6 5 4 2 1 1 3 2 2 3 4 3 3 3
5 13 5 13 7 8 15 13 6 6 4 4 3 4 1 1 1 2 4 6 7 4 1 5 5 6 6 5 4 4 2 3 3 2 2 1 1 1 1 2 4 4 4 3
3 4 4 8 6 14 5 16 9 8 6 2 4 5 4 2 3 1 2 3 4 6 5 3 5 6 6 6 6 6 5 4 2 2 1 2 2 2 2 2 3 4 5 5
6 3 5 12 4 4 5 3 9 17 13 4 3 5 6 7 7 5 6 5 6 5 3 4 5 5 6 4 5 5 6 5 5 6 4 2 1 1 2 2 3 5 6 6
2 6 7 6 3 2 4 5 9 8 13 6 6 4 2 9 8 10 8 7 6 5 6 6 6 5 5 6 6 5 6 7 6 6 6 4 4 2 2 4 6 5 5 6
4 2 4 3 8 6 12 11 8 6 2 6 7 10 5 8 13 5 5 7 7 7 6 5 5 5 5 5 6 6 7 6 6 7 7 7 6 5 4 4 4 4 4 4
7 5 5 5 8 6 2 7 3 2 3 3 2 6 9 7 7 9 15 12 9 8 7 7 7 6 5 6 6 6 7 6 6 7 7 6 6 5 5 4 3 5 4 3
3 2 3 4 3 2 2 1 5 6 5 2 2 8 7 5 7 9 12 10 8 8 7 7 7 6 6 6 6 6 5 5 6 6 5 5 5 3 2 3 3 4 3 4
5 2 2 1 3 2 3 2 2 4 1 2 5 7 8 3 5 8 11 11 10 8 7 8 7 6 6 5 6 6 5 4 4 3 3 3 3 4 4 5 3 3 4 5
2 4 2 2 2 5 0 4 4 1 6 4 4 6 7 6 12 12 14 15 10 9 8 7 7 7 6 5 5 5 4 4 2 2 2 2 2 2 3 4 6 6 6 5
3 2 2 3 4 5 3 2 3 3 2 3 3 7 2 14 17 19 18 15 12 10 9 8 6 6 6 5 6 5 4 2 1 1 0 1 3 4 4 4 5 6 6 6
5 4 3 0 3 4 1 2 3 3 4 4 1 8 3 4 12 14 15 11 9 9 8 8 8 8 7 7 6 5 3 2 2 2 2 3 3 4 5 6 6 6 7 7
6 1 3 2 1 1 5 7 6 1 1 5 4 5 4 4 7 8 12 11 12 11 8 7 7 8 8 7 7 6 4 5 3 2 2 4 5 5 6 7 7 7 7 7
2 3 5 4 3 4 5 6 8 7 3 3 6 7 4 3 6 7 10 11 12 11 10 8 7 8 7 7 7 6 6 5 3 2 3 6 6 6 6 7 7 7 7 8
4 4 2 1 2 0 3 4 7 9 13 9 2 9 5 5 10 14 12 11 11 12 10 10 9 9 7 7 6 6 6 4 3 3 5 7 7 7 7 7 7 7 7 9
2 1 3 4 2 2 3 5 7 9 14 10 16 20 9 5 5 7 11 12 15 16 14 11 9 8 9 8 7 6 6 7 3 3 6 6 6 7 7 7 8 8 9 8
3 6 4 6 4 4 7 12 18 7 7 12 15 23 7 11 10 12 14 16 18 17 15 13 13 13 9 8 8 8 7 3 2 4 6 6 6 7 7 7 8 9 10 10
5 5 3 4 4 3 8 1 3 13 13 12 12 8 7 10 11 9 9 16 17 16 14 12 9 7 7 5 6 4 3 2 1 4 6 6 5 6 7 7 8 9 9 11
3 5 4 5 4 8 8 5 8 8 10 12 20 20 14 2 3 8 10 11 19 19 14 9 7 6 7 8 7 6 2 3 2 6 6 6 6 7 6 8 10 10 11 11
4 6 6 3 5 8 8 2 2 2 7 3 8 12 8 8 9 7 11 11 9 9 8 9 9 6 7 6 6 4 1 1 5 5 6 6 6 6 6 8 10 8 10 12
3 2 6 3 3 11 10 4 4 8 8 4 4 6 9 11 5 4 4 4 8 7 9 8 7 8 7 7 6 4 2 4 3 3 4 5 5 6 6 6 8 10 11 12
9 10 5 4 4 12 7 6 8 6 3 3 6 4 5 2 2 3 4 6 8 9 7 7 8 7 6 6 5 3 2 1 2 3 4 5 6 6 6 8 8 9 10 11
3 9 9 12 11 5 7 7 6 4 3 2 3 5 3 6 4 4 4 6 7 8 7 6 8 8 5 5 4 2 0 2 3 3 3 3 5 5 6 8 10 9 9 9
5 5 3 4 7 11 11 10 6 3 8 5 4 2 4 5 6 6 4 5 7 7 7 6 8 7 6 6 5 4 3 4 4 4 5 4 3 6 5 5 6 7 9 9
5 8 7 6 10 7 10 12 10 10 9 7 5 4 4 4 5 5 6 6 6 7 6 7 7 6 5 5 6 5 5 4 3 0 2 2 3 4 5 5 7 7 9 11
8 9 7 7 8 7 11 4 5 9 12 8 5 4 4 6 7 5 7 7 7 8 7 7 7 6 6 6 6 4 3 3 2 3 4 4 4 4 5 6 7 15 18 21
Wind_Direction
157 174 193 185 183 127 157 158 153 112 157 152 207 232 265 329 106 134 182 200 198 204 282 314 183 147 130 133 144 168 168 172 151 126 162 205 226 227 261 252 256 263 281 297
124 191 136 134 129 153 155 160 147 63 109 111 201 230 279 175 203 225 172 163 174 181 98 65 66 62 52 64 69 90 172 189 182 171 191 180 142 19 335 326 310 305 310 296
99 91 130 147 123 154 166 171 164 152 135 62 130 276 211 193 129 131 220 197 200 190 167 110 87 82 79 70 61 70 58 68 43 266 61 64 47 32 359 338 329 341 334 311
59 360 142 139 166 152 163 108 160 139 147 201 181 250 223 199 207 208 227 207 220 198 147 126 116 91 101 87 77 74 67 61 42 36 63 80 77 350 30 9 344 339 344 334
332 27 56 86 112 215 112 149 143 165 157 135 188 262 217 164 213 218 217 211 208 180 146 132 114 100 82 80 83 82 75 55 43 51 52 55 51 28 348 9 357 351 342 347
69 36 39 48 43 100 122 90 62 55 92 227 175 208 211 192 209 172 191 198 180 165 146 130 119 123 105 80 74 71 77 62 56 63 59 64 59 34 24 355 351 341 336 328
15 11 359 29 84 10 184 130 96 113 199 236 312 213 256 202 227 197 184 181 175 167 157 158 150 131 107 88 76 74 71 58 50 57 55 50 47 44 27 358 340 338 329 327
125 168 352 360 20 137 89 19 149 179 193 153 90 237 234 203 203 177 179 165 153 163 173 167 153 138 127 118 111 102 93 81 57 52 43 41 40 42 16 347 332 332 325 310
135 90 6 341 5 356 142 112 111 98 20 106 210 276 287 129 146 155 162 161 172 172 175 164 156 154 143 144 134 121 106 96 80 73 57 42 25 21 359 340 327 301 300 306
143 108 356 334 88 21 60 130 116 45 150 227 259 268 245 217 185 179 179 182 175 179 173 166 166 164 168 160 140 127 102 83 69 87 75 49 357 334 326 326 326 316 301 301
123 87 140 216 182 164 130 136 96 103 155 179 305 259 244 201 188 186 188 185 178 175 180 172 168 173 169 164 161 143 116 110 55 57 117 326 312 324 325 313 298 293 294 291
192 118 143 53 75 137 193 175 158 125 214 238 245 275 342 261 190 184 185 177 171 176 177 174 174 175 179 187 177 171 172 215 227 238 283 302 306 323 313 305 301 289 282 287
181 196 97 114 156 93 202 191 195 206 125 218 165 262 23 19 157 180 183 174 180 185 177 172 172 188 194 199 198 196 198 232 248 259 291 305 308 314 308 299 294 294 292 294
133 154 184 189 152 128 195 188 190 185 173 229 230 290 319 62 179 186 187 186 182 186 186 184 183 200 204 204 204 203 222 225 246 265 286 292 291 293 289 290 293 295 293 290
144 168 137 104 92 241 210 197 186 201 224 218 241 228 250 227 200 202 191 179 180 191 191 197 193 200 204 210 211 214 231 233 227 262 285 284 305 301 303 301 296 293 288 290
17 169 95 324 350 342 274 244 229 227 240 251 258 269 216 246 139 164 192 189 198 198 200 203 196 191 206 206 205 213 228 234 212 271 285 308 309 311 299 293 294 301 303 297
120 133 92 267 353 349 308 217 209 199 210 204 226 239 168 204 203 199 192 192 200 202 198 201 197 202 196 199 194 213 224 193 228 295 301 300 302 299 302 303 304 304 310 308
125 94 65 215 24 319 243 123 187 220 251 231 266 264 219 216 213 204 197 192 200 200 200 203 193 183 192 179 189 200 193 181 330 282 291 297 303 300 301 300 299 305 312 310
31 108 96 132 192 301 298 193 170 172 272 219 230 249 236 185 105 255 187 193 200 199 199 193 172 170 153 173 186 190 141 72 305 294 298 308 313 308 314 314 314 311 307 306
57 60 113 83 136 216 241 226 198 119 297 250 223 252 199 142 220 239 187 189 194 171 158 161 169 150 141 154 144 137 102 319 298 300 303 308 315 312 309 305 309 301 300 300
119 47 161 157 222 289 243 182 152 81 240 325 276 271 162 197 204 234 158 170 170 156 164 139 140 154 141 135 134 151 160 258 268 299 312 316 307 306 290 293 314 307 307 309
162 157 183 94 84 272 153 70 164 219 314 308 336 321 209 251 61 131 143 140 150 147 127 130 133 130 129 131 130 161 241 292 330 337 334 329 318 318 321 317 310 313 317 317
224 181 179 181 206 237 227 205 232 157 238 300 340 329 248 197 210 171 162 163 165 138 130 127 137 125 120 122 140 160 347 26 13 11 342 313 323 319 318 325 324 322 323 322
245 171 196 87 261 232 224 254 234 236 221 230 220 263 186 213 217 206 173 158 138 136 137 133 133 147 147 131 122 106 60 43 49 19 346 321 326 333 327 320 316 323 323 324
178 137 171 268 274 298 259 222 232 244 248 246 215 212 235 230 233 198 181 171 151 144 145 150 157 150 134 120 102 67 55 63 59 276 266 339 345 321 327 332 329 331 316 316
190 178 179 216 223 188 254 307 162 219 240 253 215 258 243 193 217 199 205 182 157 165 157 146 144 140 148 118 93 72 75 101 109 45 19 4 337 341 346 339 330 328 325 329